格洛纳斯M-714 COSMOS 2418 [GLONASS-M]

导读 | 星芒AI

COSMOS 2418 是一颗俄罗斯 GLONASS-M 导航卫星,于 2011 年 12 月 24 日由质子-M 运载火箭发射。该卫星是 GLONASS 系统的组成部分,用于提供全球定位和导航服务。GLONASS-M 卫星具备改进的精度和稳定性,设计寿命约为 7 年。COSMOS 2418 运行在中地球轨道,支持俄罗斯及国际用户的导航需求,是俄罗斯全球导航卫星系统现代化进程中的重要一环。

基本信息
目录编号:
28916
目录名称:
COSMOS 2418 (GLONASS)
国际标识:
2005-050B
轨道中心:
EARTH
卫星名称:
格洛纳斯M-714
卫星全名:
格洛纳斯M-714 COSMOS 2418 [GLONASS-M]
卫星状态:
在轨 (已飞行7295 天)
发射日期:
2005-12-25 UTC
国别 :
俄罗斯(独联体) (CIS)
星等 :
--
轨道信息
数据来源 国际轨道数据 AOE轨道数据
星历时间 2025-12-09T16:26:33+0800
6天前
查看轨道信息
2025-12-09T05:00:00+0800
6天前
查看轨道信息
半长轴 25507.682km 25507.706km
偏心率 0.0013879 0.0013833
轨道倾角 65.700° 65.700°
近地点辐角 281.425° 281.490°
升交点赤经 322.664° 322.681°
平近点角 253.137° 247.305°
近地点 19094.144km 19094.286km
远地点 19164.95km 19164.856km
周期 675.719分钟 675.720分钟
每日圈数 2.131063 2.13106
详细信息
平衡模式:
三轴稳定
覆盖范围:
全球
运营商:
列舍特涅夫卫星信息系统
运营商所在国:
俄罗斯
制造商(研发单位):
列舍特涅夫卫星信息系统
制造商所在国:
俄罗斯
使用方式:
暂无
卫星简介
格洛纳斯(GLONASS )是苏联/俄罗斯研制卫星导航系统。标准配置为24颗卫星,其中18颗卫星就能保证该系统为俄罗斯境内用户提供全部服务。该卫星已退役。
2D轨道图
3D轨道图
轨道高度分析图
轨道倾角分析图
轨道综合分析图
查看轨道综合分析图